TimeEDT,TemperatureF,Dew PointF,Humidity,Sea Level PressureIn,VisibilityMPH,Wind Direction,Wind SpeedMPH,Gust SpeedMPH,PrecipitationIn,Events,Conditions,WindDirDegrees,DateUTC
12:15 AM,45.5,33.4,63,30.06,10.0,Calm,Calm,-,N/A,,Clear,0,2013-05-08 04:15:00
12:35 AM,43.0,34.5,72,30.05,10.0,Calm,Calm,-,N/A,,Clear,0,2013-05-08 04:35:00
12:56 AM,43.3,35.6,74,30.05,10.0,Calm,Calm,-,N/A,,Clear,0,2013-05-08 04:56:00
1:15 AM,43.0,34.0,71,30.05,10.0,Calm,Calm,-,N/A,,Clear,0,2013-05-08 05:15:00
1:35 AM,43.5,33.4,68,30.04,10.0,Calm,Calm,-,N/A,,Clear,0,2013-05-08 05:35:00
1:56 AM,42.3,34.5,74,30.04,10.0,Calm,Calm,-,N/A,,Clear,0,2013-05-08 05:56:00
2:15 AM,41.9,33.6,72,30.04,10.0,Calm,Calm,-,N/A,,Clear,0,2013-05-08 06:15:00
2:36 AM,40.3,35.4,83,30.04,10.0,Calm,Calm,-,N/A,,Clear,0,2013-05-08 06:36:00
2:56 AM,41.0,35.2,80,30.04,10.0,Calm,Calm,-,N/A,,Clear,0,2013-05-08 06:56:00
3:15 AM,39.6,33.6,79,30.04,10.0,Calm,Calm,-,N/A,,Clear,0,2013-05-08 07:15:00
3:36 AM,39.6,31.8,74,30.04,10.0,Calm,Calm,-,N/A,,Clear,0,2013-05-08 07:36:00
3:55 AM,38.8,33.6,82,30.04,10.0,Calm,Calm,-,N/A,,Clear,0,2013-05-08 07:55:00
4:15 AM,39.2,34.3,83,30.04,10.0,Calm,Calm,-,N/A,,Clear,0,2013-05-08 08:15:00
4:36 AM,39.2,34.2,82,30.04,10.0,Calm,Calm,-,N/A,,Clear,0,2013-05-08 08:36:00
4:55 AM,40.1,34.9,82,30.03,10.0,Calm,Calm,-,N/A,,Clear,0,2013-05-08 08:55:00
5:15 AM,38.5,34.7,86,30.03,10.0,Calm,Calm,-,N/A,,Clear,0,2013-05-08 09:15:00
5:36 AM,39.4,33.8,80,30.03,10.0,Calm,Calm,-,N/A,,Clear,0,2013-05-08 09:36:00
5:55 AM,39.9,34.0,79,30.03,10.0,Calm,Calm,-,N/A,,Clear,0,2013-05-08 09:55:00
6:15 AM,38.3,33.3,82,30.03,10.0,Calm,Calm,-,N/A,,Clear,0,2013-05-08 10:15:00
6:36 AM,39.2,35.4,86,30.04,10.0,Calm,Calm,-,N/A,,Clear,0,2013-05-08 10:36:00
6:55 AM,40.3,36.1,85,30.04,10.0,Calm,Calm,-,N/A,,Clear,0,2013-05-08 10:55:00
7:16 AM,41.7,38.3,88,30.04,10.0,Calm,Calm,-,N/A,,Clear,0,2013-05-08 11:16:00
7:35 AM,46.2,39.4,77,30.05,10.0,Calm,Calm,-,N/A,,Clear,0,2013-05-08 11:35:00
7:56 AM,50.7,40.8,69,30.05,10.0,SE,3.5,-,N/A,,Clear,140,2013-05-08 11:56:00
8:16 AM,56.7,30.2,37,30.06,10.0,SE,4.6,-,N/A,,Clear,140,2013-05-08 12:16:00
8:35 AM,58.1,31.3,36,30.06,10.0,SSE,4.6,-,N/A,,Clear,150,2013-05-08 12:35:00
8:56 AM,59.7,31.1,34,30.06,10.0,SSE,3.5,-,N/A,,Clear,160,2013-05-08 12:56:00
9:16 AM,61.9,31.5,32,30.07,10.0,South,4.6,-,N/A,,Clear,170,2013-05-08 13:16:00
9:35 AM,62.8,30.6,30,30.07,10.0,South,5.8,-,N/A,,Clear,170,2013-05-08 13:35:00
9:56 AM,64.4,30.4,28,30.06,10.0,South,4.6,-,N/A,,Clear,170,2013-05-08 13:56:00
10:15 AM,65.5,31.5,28,30.06,10.0,South,5.8,-,N/A,,Clear,180,2013-05-08 14:15:00
10:35 AM,67.1,32.5,28,30.06,10.0,South,5.8,-,N/A,,Clear,190,2013-05-08 14:35:00
10:56 AM,67.5,32.0,27,30.06,10.0,South,6.9,-,N/A,,Clear,180,2013-05-08 14:56:00
11:15 AM,68.4,31.5,25,30.06,10.0,SSE,5.8,-,N/A,,Clear,150,2013-05-08 15:15:00
11:35 AM,69.8,32.9,26,30.05,10.0,SSE,5.8,-,N/A,,Clear,150,2013-05-08 15:35:00
11:56 AM,70.7,32.4,24,30.05,10.0,SE,8.1,-,N/A,,Clear,140,2013-05-08 15:56:00
12:15 PM,71.4,31.8,23,30.05,10.0,SSE,6.9,-,N/A,,Clear,150,2013-05-08 16:15:00
12:35 PM,72.1,33.3,24,30.05,10.0,SSE,4.6,-,N/A,,Clear,160,2013-05-08 16:35:00
12:56 PM,71.6,32.7,24,30.05,10.0,SSE,9.2,-,N/A,,Clear,160,2013-05-08 16:56:00
1:15 PM,71.1,33.1,25,30.04,10.0,SSE,6.9,-,N/A,,Clear,150,2013-05-08 17:15:00
1:36 PM,72.5,34.0,24,30.04,10.0,SSE,6.9,-,N/A,,Clear,150,2013-05-08 17:36:00
1:56 PM,73.0,37.9,28,30.03,10.0,SSE,5.8,-,N/A,,Clear,160,2013-05-08 17:56:00
2:15 PM,73.4,41.4,31,30.03,10.0,South,6.9,-,N/A,,Clear,180,2013-05-08 18:15:00
2:36 PM,73.9,42.3,32,30.02,10.0,SE,5.8,-,N/A,,Clear,140,2013-05-08 18:36:00
2:55 PM,73.8,44.8,35,30.01,10.0,SSE,6.9,-,N/A,,Clear,160,2013-05-08 18:55:00
3:15 PM,72.9,44.6,36,30.02,10.0,South,6.9,-,N/A,,Clear,170,2013-05-08 19:15:00
3:36 PM,72.7,40.5,31,30.01,10.0,South,4.6,-,N/A,,Clear,180,2013-05-08 19:36:00
3:55 PM,72.3,42.6,34,30.01,10.0,SSE,4.6,-,N/A,,Clear,150,2013-05-08 19:55:00
4:36 PM,72.5,43.7,36,30.00,10.0,South,8.1,-,N/A,,Clear,180,2013-05-08 20:36:00
4:55 PM,72.5,40.5,31,30.00,10.0,SSE,8.1,-,N/A,,Clear,160,2013-05-08 20:55:00
5:16 PM,71.4,36.3,28,29.99,10.0,SSE,6.9,-,N/A,,Clear,160,2013-05-08 21:16:00
5:35 PM,70.2,36.0,29,29.99,10.0,SSE,6.9,-,N/A,,Clear,150,2013-05-08 21:35:00
5:55 PM,70.0,38.1,31,29.99,10.0,SSE,3.5,-,N/A,,Clear,160,2013-05-08 21:55:00
6:16 PM,69.1,38.8,33,29.98,10.0,South,3.5,-,N/A,,Clear,180,2013-05-08 22:16:00
6:35 PM,68.9,39.2,34,29.98,10.0,SSW,5.8,-,N/A,,Clear,200,2013-05-08 22:35:00
6:56 PM,68.7,37.9,32,29.98,10.0,SSE,5.8,-,N/A,,Clear,160,2013-05-08 22:56:00
7:16 PM,67.3,37.9,34,29.97,10.0,SSE,3.5,-,N/A,,Clear,160,2013-05-08 23:16:00
7:35 PM,64.8,34.3,32,29.97,10.0,South,4.6,-,N/A,,Clear,170,2013-05-08 23:35:00
7:56 PM,63.5,34.0,33,29.98,10.0,Calm,Calm,-,N/A,,Clear,0,2013-05-08 23:56:00
8:15 PM,61.3,34.2,36,29.98,10.0,SSE,3.5,-,N/A,,Clear,150,2013-05-09 00:15:00
8:35 PM,59.4,31.8,35,29.97,10.0,SSE,4.6,-,N/A,,Clear,150,2013-05-09 00:35:00
8:56 PM,58.1,31.8,37,29.97,10.0,Calm,Calm,-,N/A,,Clear,0,2013-05-09 00:56:00
9:15 PM,56.7,31.8,39,29.97,10.0,Calm,Calm,-,N/A,,Clear,0,2013-05-09 01:15:00
9:35 PM,55.6,31.8,41,29.98,10.0,Calm,Calm,-,N/A,,Clear,0,2013-05-09 01:35:00
9:56 PM,54.7,33.4,45,29.97,10.0,Calm,Calm,-,N/A,,Clear,0,2013-05-09 01:56:00
10:15 PM,52.7,36.0,53,29.97,10.0,Calm,Calm,-,N/A,,Clear,0,2013-05-09 02:15:00
10:36 PM,51.8,35.6,54,29.97,10.0,Calm,Calm,-,N/A,,Clear,0,2013-05-09 02:36:00
10:55 PM,52.5,35.2,52,29.98,10.0,Calm,Calm,-,N/A,,Clear,0,2013-05-09 02:55:00
11:15 PM,51.1,36.9,58,29.97,10.0,Calm,Calm,-,N/A,,Clear,0,2013-05-09 03:15:00
11:36 PM,50.4,39.0,65,29.97,10.0,Calm,Calm,-,N/A,,Scattered Clouds,0,2013-05-09 03:36:00
11:55 PM,49.8,38.7,65,29.97,10.0,Calm,Calm,-,N/A,,Mostly Cloudy,0,2013-05-09 03:55:00